International Skating Union - Official Site

ISU World Cup Speed Skating Heerenveen
November 10-12, 2017

Draw | Lap Times | Index | World Cup

Referee: Daniel  CABELDUC  (SWE)
Starter: Jouko  VESTERLUND  (FIN)
StartTime: EndTime: Air Temp: Ice Temp: Humidity:
15:20 16:01 14.6℃ -12.6℃ 46%
Result 3000m Ladies Division A
Rankings as of Nov 12 2017 6:01PM
Rank: No.: Name: Nation: Time: Behind: Points:
1 267 Antoinette  de Jong NED NED 4:03.53200m - 20.09 - (20.0)
600m - 51.18 - (31.0)
1000m - 1:22.30 - (31.1)
1400m - 1:53.89 - (31.5)
1800m - 2:25.81 - (31.9)
2200m - 2:58.15 - (32.3)
2600m - 3:30.75 - (32.6)
3000m - 4:03.53 - (32.7)
100
2 304 Natalia  Voronina RUS RUS 4:04.00200m - 19.90 - (19.9)
600m - 51.02 - (31.1)
1000m - 1:22.56 - (31.5)
1400m - 1:54.01 - (31.4)
1800m - 2:26.21 - (32.2)
2200m - 2:58.31 - (32.1)
2600m - 3:31.36 - (33.0)
3000m - 4:04.00 - (32.6)
0.47 80
3 206 Ivanie  Blondin CAN CAN 4:04.16200m - 20.42 - (20.4)
600m - 51.74 - (31.3)
1000m - 1:23.40 - (31.6)
1400m - 1:55.43 - (32.0)
1800m - 2:27.03 - (31.5)
2200m - 2:58.79 - (31.7)
2600m - 3:31.08 - (32.2)
3000m - 4:04.16 - (33.0)
0.63 70
4 251 Miho  Takagi JPN JPN 4:04.91200m - 20.39 - (20.3)
600m - 51.78 - (31.3)
1000m - 1:23.86 - (32.0)
1400m - 1:56.05 - (32.1)
1800m - 2:28.19 - (32.1)
2200m - 3:00.42 - (32.2)
2600m - 3:32.63 - (32.2)
3000m - 4:04.91 - (32.2)
1.38 60
5 273 Irene  Schouten NED NED 4:05.41200m - 20.24 - (20.2)
600m - 51.76 - (31.5)
1000m - 1:23.90 - (32.1)
1400m - 1:56.08 - (32.1)
1800m - 2:27.95 - (31.8)
2200m - 2:59.96 - (32.0)
2600m - 3:32.48 - (32.5)
3000m - 4:05.41 - (32.9)
1.88 50
6 280 Ireen  Wüst NED NED 4:05.54200m - 20.31 - (20.3)
600m - 51.60 - (31.2)
1000m - 1:22.53 - (30.9)
1400m - 1:54.17 - (31.6)
1800m - 2:26.13 - (31.9)
2200m - 2:58.59 - (32.4)
2600m - 3:31.77 - (33.1)
3000m - 4:05.54 - (33.7)
2.01 45
7 227 Martina  Sáblíková CZE CZE 4:05.70200m - 20.61 - (20.6)
600m - 52.10 - (31.4)
1000m - 1:24.02 - (31.9)
1400m - 1:56.22 - (32.1)
1800m - 2:28.59 - (32.3)
2200m - 3:00.98 - (32.3)
2600m - 3:33.23 - (32.2)
3000m - 4:05.70 - (32.4)
2.17 40
8 305 Anna  Yurakova RUS RUS 4:05.91200m - 20.46 - (20.4)
600m - 52.02 - (31.5)
1000m - 1:23.83 - (31.8)
1400m - 1:55.72 - (31.8)
1800m - 2:27.37 - (31.6)
2200m - 2:59.65 - (32.2)
2600m - 3:32.19 - (32.5)
3000m - 4:05.91 - (33.7)
2.38 35
9 213 Isabelle  Weidemann CAN CAN 4:06.26200m - 20.96 - (20.9)
600m - 52.72 - (31.7)
1000m - 1:25.03 - (32.3)
1400m - 1:57.34 - (32.3)
1800m - 2:29.39 - (32.0)
2200m - 3:01.58 - (32.1)
2600m - 3:33.51 - (31.9)
3000m - 4:06.26 - (32.7)
2.73 30
10 237 Claudia  Pechstein GER GER 4:07.63200m - 20.66 - (20.6)
600m - 52.55 - (31.8)
1000m - 1:24.74 - (32.1)
1400m - 1:57.22 - (32.4)
1800m - 2:29.73 - (32.5)
2200m - 3:02.07 - (32.3)
2600m - 3:34.70 - (32.6)
3000m - 4:07.63 - (32.9)
4.10 25
11 264 Carlijn  Achtereekte NED NED 4:08.31200m - 20.59 - (20.5)
600m - 52.01 - (31.4)
1000m - 1:23.84 - (31.8)
1400m - 1:56.14 - (32.3)
1800m - 2:28.77 - (32.6)
2200m - 3:01.52 - (32.7)
2600m - 3:34.65 - (33.1)
3000m - 4:08.31 - (33.6)
4.78 21
12 271 Carien  Kleibeuker NED NED 4:09.54200m - 21.42 - (21.4)
600m - 52.93 - (31.5)
1000m - 1:24.51 - (31.5)
1400m - 1:56.84 - (32.3)
1800m - 2:29.40 - (32.5)
2200m - 3:02.23 - (32.8)
2600m - 3:35.87 - (33.6)
3000m - 4:09.54 - (33.6)
6.01 18
13 235 Roxanne  Dufter GER GER 4:12.10200m - 20.48 - (20.4)
600m - 52.24 - (31.7)
1000m - 1:24.74 - (32.5)
1400m - 1:57.58 - (32.8)
1800m - 2:30.11 - (32.5)
2200m - 3:03.10 - (32.9)
2600m - 3:37.05 - (33.9)
3000m - 4:12.10 - (35.0)
8.57 16
14 205 Marina  Zueva BLR BLR 4:13.60200m - 20.38 - (20.3)
600m - 52.18 - (31.8)
1000m - 1:24.17 - (31.9)
1400m - 1:56.99 - (32.8)
1800m - 2:29.97 - (32.9)
2200m - 3:03.95 - (33.9)
2600m - 3:38.36 - (34.4)
3000m - 4:13.60 - (35.2)
10.07 14
15 296 Victoria  Filyushkina RUS RUS 4:14.39200m - 21.03 - (21.0)
600m - 53.06 - (32.0)
1000m - 1:25.91 - (32.8)
1400m - 1:59.21 - (33.3)
1800m - 2:32.59 - (33.3)
2200m - 3:06.25 - (33.6)
2600m - 3:40.14 - (33.8)
3000m - 4:14.39 - (34.2)
10.86 12
16 241 Francesca  Lollobrigida ITA ITA 4:14.60200m - 20.23 - (20.2)
600m - 51.87 - (31.6)
1000m - 1:23.99 - (32.1)
1400m - 1:56.67 - (32.6)
1800m - 2:29.76 - (33.0)
2200m - 3:03.85 - (34.0)
2600m - 3:38.75 - (34.9)
3000m - 4:14.60 - (35.8)
11.07 10